YUBILEINY (RS30)

Last updated on Mon Jun 22 2026 00:03:18 GMT+0000 (Coordinated Universal Time)

1 32953U 08025A 26172.52475512 .00000034 00000+0 17473-3 0 9997 2 32953 82.5044 352.7410 0018693 303.9019 56.0283 12.43179579820238
UTC large
Height (km)
Speed (km/s)
/
Latitude / Longitude
Inclination (degrees)
Orbital Period (minutes)
Azimuth
Elevation
Range (km)
Doppler Factor

Next 0 passes for location: London (51.5072 / 0.1276)

No passes found over London.
YUBILEINY (RS30)